Probability
4 2 0 0 0 0 0 0 0 0 1 1 1 0 0 0 0 0 0 0 0 0 1 2 2 2 1 0 0 0 0 0 0 0 0 0 0 0 0 0 0 0 0 0 1 2 2 3 3
4 2 1 0 0 0 0 0 0 0 0 0 0 0 0 0 0 0 0 0 0 0 0 1 1 1 0 0 0 0 0 0 0 0 0 0 0 0 0 0 0 0 0 0 0 1 1 2 1
5 3 1 0 0 0 0 1 0 0 0 0 0 0 0 0 0 0 1 1 1 0 0 0 0 0 0 0 0 0 0 0 0 0 0 0 0 0 0 0 0 0 0 0 0 0 0 0 0
6 4 1 0 0 0 0 0 0 0 0 0 0 0 0 0 0 0 1 1 1 1 1 0 0 0 0 0 0 0 0 0 0 0 0 0 0 0 0 0 0 0 0 0 0 0 0 0 0
6 3 1 0 0 0 0 0 0 0 0 0 0 0 0 0 0 0 0 0 1 1 1 1 0 0 0 0 0 0 0 0 0 0 0 0 0 0 0 0 0 0 0 0 0 0 0 0 0
5 3 1 0 0 1 1 1 0 0 0 0 0 0 0 0 0 0 0 0 0 1 1 1 1 1 0 0 0 0 0 0 0 0 0 0 0 0 0 0 0 0 0 0 0 0 0 0 0
4 2 1 0 0 1 1 1 0 0 0 0 0 0 0 0 0 0 0 0 1 1 0 1 1 1 0 0 0 0 0 0 0 0 0 0 0 0 0 0 0 0 0 0 0 0 0 0 0
3 1 0 0 0 1 1 0 0 0 0 0 0 0 0 0 0 0 0 0 1 1 0 0 0 0 0 0 0 0 0 0 0 0 0 0 0 0 0 0 0 0 0 0 0 0 0 0 0
1 0 0 1 1 0 0 0 0 0 0 0 0 0 0 0 0 0 0 0 1 1 0 0 0 0 0 0 0 0 0 0 0 0 0 0 0 0 0 0 0 0 0 0 0 0 0 0 0
0 0 0 2 3 1 0 0 0 0 0 0 0 0 0 0 0 0 0 0 0 0 0 0 0 1 1 0 0 0 0 0 0 0 0 0 0 0 0 0 0 0 0 0 0 0 0 0 0
0 0 0 1 3 2 0 0 0 0 0 0 0 0 0 0 0 0 0 0 0 0 0 0 0 1 1 0 0 0 0 0 0 0 0 0 0 0 0 0 0 0 0 0 0 0 0 0 0
0 0 0 1 2 1 0 0 0 0 1 0 0 1 1 0 0 0 0 0 0 0 0 0 0 1 1 0 0 0 0 0 0 0 0 0 0 0 0 0 0 0 0 0 0 0 0 0 0
0 0 0 1 2 1 0 0 0 1 2 1 0 1 1 1 1 0 0 0 0 0 0 0 0 0 0 0 0 0 0 0 0 0 0 0 0 0 0 0 0 0 0 0 0 0 0 0 0
0 0 0 1 1 1 0 1 1 1 1 0 0 1 1 2 2 1 0 0 0 0 0 0 0 0 0 0 0 0 0 0 0 0 0 0 0 0 0 0 0 0 0 0 0 0 0 0 0
0 0 0 0 0 0 0 1 2 2 1 0 0 0 1 3 3 2 1 0 0 0 0 0 0 0 0 0 0 0 0 0 0 0 0 0 0 0 0 0 0 0 0 0 0 0 0 0 0
0 0 0 0 0 0 0 1 1 2 1 1 1 1 1 3 4 3 1 0 0 0 0 0 0 0 0 0 0 0 0 0 0 0 0 0 0 0 0 0 0 0 0 0 0 0 0 0 0
0 0 0 0 0 0 0 0 1 2 2 2 1 0 0 2 4 3 2 1 0 0 0 0 0 0 0 0 0 0 0 0 0 0 0 0 0 0 0 0 0 0 0 0 0 0 0 0 0
0 0 0 0 0 0 0 0 1 1 1 1 0 0 0 1 3 4 3 1 0 0 0 1 1 1 0 0 0 0 0 0 0 0 0 0 0 0 0 0 0 0 0 0 0 0 0 0 0
0 0 0 0 0 0 0 0 0 0 0 0 0 0 0 1 3 4 3 1 1 0 0 1 2 1 0 0 0 0 0 0 0 0 0 0 0 0 0 0 0 0 0 0 0 0 0 0 0
0 0 0 0 0 0 0 0 0 0 0 0 0 0 0 1 3 5 4 3 2 1 0 0 1 1 0 0 0 0 0 0 0 0 0 0 0 0 0 0 0 0 0 0 0 0 0 0 0
0 0 0 0 0 0 0 0 0 0 0 0 0 0 0 1 3 6 6 5 3 2 1 0 0 0 1 1 0 0 0 0 0 0 0 0 0 0 0 0 0 0 0 0 0 0 0 0 0
0 0 0 0 0 0 0 0 0 0 0 0 0 0 0 1 3 6 8 7 6 5 3 1 0 1 2 2 1 0 0 0 0 0 0 0 0 0 0 0 0 0 0 0 0 0 0 0 0
0 0 0 0 0 0 0 0 0 1 1 1 1 1 0 1 3 6 8 9 8 7 5 2 1 1 3 3 1 1 0 0 0 0 0 0 0 0 0 0 0 0 0 0 0 0 0 0 0
0 0 0 0 0 0 0 0 0 1 2 2 2 2 1 1 3 6 8 10 10 9 6 4 2 3 3 3 3 2 1 0 0 0 0 0 0 0 0 0 0 0 0 0 0 0 0 0 0
0 0 0 0 0 0 0 0 0 0 1 3 3 3 2 1 3 5 7 10 12 11 8 5 3 3 3 3 3 3 2 1 0 0 0 0 0 0 0 0 0 0 0 0 0 0 0 0 0
0 0 0 0 0 0 0 0 0 0 1 2 3 3 2 2 3 6 8 10 12 12 9 6 4 3 3 3 3 3 2 1 0 0 0 0 0 0 0 0 0 0 0 0 0 0 0 0 0
0 0 0 0 0 0 0 0 0 0 1 2 3 3 2 3 6 9 11 12 12 11 8 6 5 4 3 3 3 3 2 1 0 0 0 0 0 0 0 0 0 0 0 0 0 0 0 0 0
0 0 0 0 0 0 0 0 0 0 0 1 1 2 2 4 8 12 14 14 12 8 6 5 4 3 3 3 3 2 1 0 0 0 0 0 0 0 0 0 0 0 0 0 0 0 0 0 0
0 0 0 0 0 0 0 0 0 0 0 0 0 1 1 2 6 11 13 13 10 6 4 3 3 3 3 3 2 1 0 0 1 1 0 0 0 0 0 0 0 0 0 0 0 0 0 0 0
0 0 0 0 0 0 0 0 0 0 0 0 1 1 1 1 5 10 12 11 8 5 3 3 3 3 3 3 1 0 0 1 2 2 1 0 0 0 0 0 0 0 0 0 0 0 0 0 0
Wind_Speed
10 9 6 2 3 3 1 2 5 6 6 7 8 9 12 13 9 9 4 8 13 14 12 11 13 13 13 13 12 12 12 12 11 11 11 10 9 9 9 8 8 8 8 7 7 7 7 6 6
9 7 3 3 3 2 1 4 8 8 6 6 7 10 13 12 12 9 5 9 14 14 11 12 13 14 13 13 13 12 12 12 11 11 11 10 9 8 8 7 7 7 7 7 7 6 6 6 6
11 7 4 3 4 1 3 5 8 8 6 6 8 10 9 8 9 7 7 11 14 14 12 13 14 14 13 13 13 12 12 11 11 11 10 9 8 8 7 7 7 7 6 6 6 6 6 6 5
5 3 4 4 4 2 6 6 7 7 6 7 9 10 9 9 8 9 10 13 14 14 13 12 14 14 13 13 13 12 12 11 11 10 9 8 7 7 6 6 6 6 6 6 5 5 5 5 5
3 3 4 4 2 4 6 6 6 6 6 8 10 11 10 10 11 12 10 12 14 14 13 13 14 13 13 13 12 12 11 11 10 9 8 8 7 6 6 6 6 6 6 5 5 4 4 4 4
2 3 4 3 1 5 5 5 7 8 8 9 11 11 9 8 9 10 10 10 13 13 12 12 14 13 12 12 12 11 10 9 8 8 7 6 5 5 5 5 5 5 5 5 4 3 3 3 2
3 4 5 2 2 4 5 5 6 7 8 7 9 9 8 9 7 8 9 9 11 12 11 11 10 10 11 12 11 10 9 8 7 6 5 3 3 3 4 5 4 4 4 3 3 2 2 1 1
3 4 5 1 3 4 5 5 5 8 7 6 8 9 9 10 8 8 8 9 9 9 9 10 10 9 9 8 10 10 9 7 5 5 4 3 3 4 4 5 4 3 2 2 1 1 2 2 3
4 3 3 2 3 3 6 5 6 7 8 8 10 13 14 13 11 8 7 7 7 8 7 8 8 7 7 8 9 8 8 6 5 4 6 4 2 3 4 5 4 2 2 1 2 4 4 5 6
2 2 2 3 3 3 4 5 5 7 8 11 15 16 15 12 11 9 8 8 7 7 6 7 6 5 5 5 6 3 4 4 3 2 3 2 1 2 4 6 5 4 4 4 6 6 6 6 4
3 2 1 3 4 3 3 4 4 7 6 10 14 16 13 11 9 8 8 7 7 7 6 5 5 5 5 4 3 2 1 1 1 1 3 1 2 1 2 2 3 4 4 3 3 5 4 3 1
3 1 1 3 4 2 2 3 5 7 6 10 14 14 13 10 9 7 7 8 7 7 6 4 3 4 4 4 3 2 2 1 2 2 3 2 1 2 1 1 1 0 0 0 1 1 1 2 2
3 1 2 2 2 1 2 4 6 8 8 12 15 13 11 10 8 7 8 8 8 6 5 4 3 4 4 3 1 3 2 2 3 2 2 3 2 2 1 2 2 2 1 1 2 2 3 3 4
2 3 3 3 3 2 3 3 5 7 9 11 13 11 9 8 8 7 7 8 8 7 6 4 3 3 3 3 2 3 2 2 3 2 2 3 2 2 2 2 2 2 2 2 2 2 2 2 2
2 3 2 3 4 4 4 2 4 7 8 10 10 10 9 7 7 7 6 7 8 7 6 5 3 3 4 4 3 3 2 3 3 2 3 3 3 3 3 3 2 2 2 3 3 3 2 2 1
5 5 4 4 6 4 4 3 4 7 8 8 7 8 7 6 6 7 7 7 7 7 7 4 4 5 5 4 3 3 3 3 3 2 3 4 4 4 4 3 2 3 3 3 2 3 3 3 2
6 6 6 5 6 6 5 4 5 5 7 8 8 7 7 7 7 6 7 8 7 7 7 5 4 5 5 4 3 3 3 3 3 3 3 4 5 4 3 2 2 3 3 3 3 3 2 2 2
5 5 5 5 5 6 5 5 6 6 6 7 8 9 9 8 8 7 7 7 6 7 7 6 5 4 4 3 3 2 3 2 2 2 3 4 4 5 4 2 4 4 3 3 3 3 2 2 2
3 2 1 3 5 5 6 6 7 7 7 7 8 9 9 9 8 7 7 7 7 6 7 6 5 4 3 2 2 2 2 2 2 2 3 3 4 5 4 3 3 3 3 3 4 3 3 2 2
4 4 4 4 5 4 5 6 7 8 9 8 8 8 9 10 10 8 7 6 7 6 6 6 5 4 4 2 2 2 2 2 2 2 3 3 4 4 4 3 3 3 3 4 3 3 3 3 2
5 5 5 4 4 4 4 5 7 8 8 7 7 7 7 10 11 10 9 8 7 6 6 6 6 6 5 4 3 2 2 1 2 2 2 3 3 4 4 4 3 3 3 2 3 3 3 3 3
4 4 5 6 6 4 6 4 7 9 10 10 8 8 8 8 10 9 9 8 8 7 6 7 6 6 5 5 3 3 2 2 2 2 1 2 3 3 3 3 3 3 3 3 3 4 3 3 3
4 4 5 6 5 4 7 5 6 10 11 11 10 9 9 9 10 10 9 8 8 6 5 6 6 5 5 5 3 2 2 2 2 2 2 2 2 2 3 3 3 3 2 2 3 3 3 2 2
3 3 5 6 5 6 8 6 5 8 11 12 11 11 10 9 10 10 9 8 8 7 5 5 5 5 4 4 4 4 3 3 3 2 1 2 1 1 2 2 2 3 3 3 2 2 3 2 3
5 3 2 4 4 5 7 6 5 8 11 12 12 11 12 11 10 10 10 9 8 8 7 6 6 5 4 4 4 4 3 3 3 2 1 1 2 1 2 2 2 2 3 3 3 3 2 2 3
8 7 3 3 3 3 6 5 4 7 9 11 11 10 10 11 10 10 10 10 9 9 8 7 7 6 4 3 3 4 3 2 2 2 2 1 2 2 1 2 3 3 3 3 4 3 3 3 3
6 7 8 6 6 4 4 4 5 6 8 10 11 11 9 10 10 10 10 10 9 9 8 7 8 7 5 4 3 3 3 2 2 1 2 2 2 2 2 3 3 3 4 4 4 3 3 3 4
7 6 4 3 3 2 3 6 6 9 10 11 12 11 9 10 10 10 9 10 9 9 8 7 7 7 5 4 4 3 3 2 2 3 3 2 3 3 3 3 4 4 3 4 4 3 3 4 3
8 8 5 4 3 1 1 0 3 8 9 10 11 11 10 10 11 10 9 8 8 8 8 7 7 6 5 4 4 4 3 2 3 3 3 3 2 2 3 3 4 3 3 3 3 3 4 4 4
7 8 6 4 4 3 2 1 3 5 7 8 10 10 10 10 10 10 10 9 8 8 8 8 7 6 5 4 4 4 4 3 4 3 3 3 3 3 3 4 4 4 4 4 3 4 4 4 4
Wind_Direction
281 263 254 262 259 237 244 79 80 69 60 52 51 63 67 54 62 96 135 113 111 110 111 105 101 100 99 98 97 98 99 97 95 93 91 88 82 76 71 67 63 61 61 59 60 59 55 53 51
283 282 278 247 259 255 73 76 78 73 81 79 65 67 75 73 81 98 109 108 108 108 108 105 103 100 98 96 96 97 96 95 94 92 89 86 82 75 68 63 63 61 59 59 59 56 52 50 47
264 265 264 252 258 300 83 79 91 86 82 84 75 60 59 76 90 105 124 116 107 106 105 107 106 103 101 98 97 97 97 96 95 92 89 84 79 74 67 61 60 58 57 58 58 55 49 46 43
262 259 245 251 268 69 101 105 105 102 83 80 88 77 68 63 93 115 121 112 108 107 107 111 108 107 105 101 99 97 96 96 94 92 88 83 76 70 66 61 59 56 54 55 53 51 45 41 36
257 252 252 248 268 81 86 95 96 96 90 84 86 89 81 75 97 112 114 113 112 111 114 115 113 112 109 106 102 99 95 94 92 90 87 81 74 69 67 62 59 55 53 52 49 45 42 37 27
277 260 261 243 130 90 88 98 98 97 96 101 100 99 92 100 102 109 112 112 112 115 117 119 118 116 112 108 104 101 99 97 95 92 89 87 85 80 77 72 64 57 49 47 44 37 35 34 17
280 280 270 260 116 93 88 83 89 101 100 97 105 102 109 107 107 110 112 112 115 121 125 128 128 123 116 114 111 108 107 107 108 108 108 114 123 120 103 90 77 67 57 49 38 24 24 16 337
283 289 287 278 112 98 93 90 95 95 89 95 108 113 125 128 125 115 115 116 118 120 124 128 130 132 132 126 125 126 127 128 134 144 160 184 194 174 147 115 99 82 70 55 13 313 279 269 266
277 270 292 360 86 107 115 111 91 96 96 82 83 103 120 130 129 124 119 114 114 116 123 124 125 128 135 140 137 147 149 158 167 181 203 218 206 167 158 116 132 152 177 220 244 254 258 258 252
230 279 313 45 73 99 113 117 118 114 104 97 96 104 120 133 131 130 129 127 123 121 120 118 120 131 133 126 138 158 150 162 181 169 163 203 119 86 103 141 173 193 208 228 242 252 260 253 234
233 245 340 40 62 70 97 116 118 112 110 120 122 127 131 132 136 139 138 130 125 121 112 114 129 130 128 116 120 122 114 133 114 72 89 56 60 110 126 170 185 211 209 227 231 238 243 241 206
246 249 83 50 57 68 88 106 93 94 116 118 124 131 137 141 142 140 131 125 121 115 112 113 119 115 113 116 132 124 98 84 67 36 64 59 37 24 24 60 47 359 119 141 278 283 340 351 12
216 194 121 110 106 123 107 97 96 105 116 120 128 135 141 142 142 139 135 128 122 123 125 123 109 104 102 102 98 93 78 72 78 27 47 63 48 32 11 54 25 20 16 21 5 20 23 13 18
182 164 146 147 146 145 125 121 123 119 125 128 136 142 144 142 143 136 136 131 133 135 128 119 116 117 123 113 94 90 92 85 73 35 42 58 57 40 23 48 37 10 4 11 22 30 30 30 28
200 185 192 185 184 173 149 142 139 133 138 137 144 144 141 147 149 143 144 138 137 135 128 125 127 100 81 80 77 83 83 77 69 39 30 42 45 37 38 35 28 6 8 25 24 20 15 20 39
214 221 220 202 199 182 165 160 149 150 148 144 151 146 140 147 155 149 144 135 132 127 122 128 120 101 85 74 60 63 61 64 69 47 25 26 41 46 42 27 11 17 23 23 30 25 11 16 18
222 212 202 197 194 171 173 167 174 153 153 156 159 157 155 161 159 144 135 129 133 131 129 126 108 102 95 90 77 68 66 51 56 47 25 18 28 44 51 24 13 32 29 15 23 37 23 7 354
212 208 198 194 179 164 173 167 157 157 177 171 168 168 169 164 156 145 136 132 130 129 128 123 116 110 110 99 87 69 63 59 61 62 42 24 20 37 38 31 28 35 30 17 25 24 23 1 345
238 208 179 190 170 167 176 171 163 178 197 185 180 176 169 158 150 141 143 141 134 130 128 130 133 129 118 107 103 97 89 70 59 66 52 38 35 31 32 31 37 41 40 30 31 20 8 357 6
234 191 190 185 178 183 181 184 179 191 204 198 186 182 169 157 154 148 149 145 141 135 133 134 132 128 113 102 104 105 96 94 78 54 48 38 43 29 26 32 38 50 48 34 28 29 10 358 20
217 219 205 188 174 197 189 202 202 205 204 196 194 189 176 163 159 157 157 152 146 147 148 143 142 133 125 118 95 93 80 72 80 69 46 37 46 39 27 28 34 38 51 38 32 37 32 1 1
229 211 207 206 200 213 212 216 210 198 193 194 196 188 175 164 159 156 155 156 154 153 152 147 144 136 136 134 126 131 123 102 96 98 91 63 56 49 31 28 29 36 51 43 26 38 23 27 10
225 197 210 223 231 241 231 230 206 192 192 189 188 187 172 168 163 161 158 156 152 147 143 143 138 134 133 127 131 125 102 104 95 98 93 84 71 62 51 29 29 34 52 63 52 44 36 28 28
202 214 235 239 245 245 229 222 206 194 191 182 181 181 173 170 164 162 156 150 144 140 139 135 133 126 129 139 142 118 108 106 100 96 96 99 93 65 60 46 41 34 33 41 44 53 56 38 25
201 205 235 217 217 234 217 213 207 184 183 176 174 176 172 169 167 162 156 152 148 149 150 147 137 138 149 153 142 135 137 136 125 128 121 109 107 77 58 51 55 42 28 35 29 36 39 49 43
206 211 225 249 231 231 196 202 171 168 170 163 162 168 169 166 164 160 156 152 153 154 157 154 150 148 155 156 143 138 142 130 119 131 124 96 103 102 84 70 66 50 31 38 30 22 26 36 36
217 223 233 264 278 255 192 154 132 148 153 155 157 160 169 165 157 157 156 154 155 157 159 156 150 151 160 153 142 131 122 107 109 102 91 81 81 87 82 80 76 60 41 39 33 33 23 32 39
233 246 249 251 283 268 215 190 172 172 169 165 165 166 167 161 159 157 157 158 158 157 158 155 153 153 156 159 154 129 116 111 91 74 73 71 78 70 73 71 73 63 53 47 37 33 24 34 37
214 229 236 238 238 270 281 288 132 169 168 168 168 167 168 162 160 158 157 157 152 150 152 154 155 153 156 157 136 130 127 120 107 87 87 83 81 90 89 72 73 66 57 53 48 38 36 33 27
239 246 245 257 271 234 243 243 128 150 157 166 167 167 165 158 155 155 155 155 154 157 159 161 162 156 154 147 138 131 130 132 120 110 104 102 89 74 85 83 74 64 55 51 47 43 42 40 33